Location: Unspecified
(35.6961°N, 0.0000°E)
Time: 08:45:35
(UTC+00:00)

S-56A Canister/Altair - Pass Details

Date: 28 May 2019
Orbit: 633 x 2499 km, 38.9° (Epoch: 23 June)

Event Time Altitude Azimuth Distance (km) Brightness Sun altitude
Rises 07:49:08 0° 278° (W) 4,900 11.1 34.6°
Reaches altitude 10° 07:53:20 10° 262° (W) 4,222 10.9 35.4°
Maximum altitude 08:00:52 20° 222° (SW) 3,928 11.0 37.0°
Drops below altitude 10° 08:09:44 10° 183° (S) 5,031 11.8 38.8°
Sets 08:15:34 0° 168° (SSE) 6,148 12.3 40.0°
